Regional Weather Roundup
Issued by NWS Wakefield, VA

Home | Current Version | Previous Version | Text Only | Print | Product List | Glossary On
Versions: 1 2 3 4 5 6 7 8 9 10 11 12 13 14 15 16 17 18 19 20 21 22 23 24 25 26 27 28 29 30 31 32 33 34 35 36 37 38 39 40 41 42 43 44 45 46 47 48 49 50
000
ASUS41 KAKQ 310110
RWRAKQ

REGIONAL WEATHER ROUNDUP
NATIONAL WEATHER SERVICE WAKEFIELD VA
900 PM EDT WED JUL 30 2014

Note: "fair" indicates few or no clouds below 12,000 feet with no
significant weather and/or obstructions to visibility. * = Denotes
station may not report precipitation (e.g., rain,snow,etc.),
thunder or fog.

VAZ042-051-052>054-056-310200-
NORTHERN VIRGINIA

CITY           SKY/WX    TMP DP  RH WIND       PRES   REMARKS
WASH NATIONAL  PTCLDY    75  54  47 S9        30.06R
DULLES         PTCLDY    70  55  59 S6        30.05S
FORT BELVOIR   CLEAR     65  60  81 CALM      30.06S
QUANTICO       CLEAR     70  62  76 W3        30.07R
FREDERICKSBRG* CLEAR     69  61  77 CALM      30.05S
STAFFORD*      CLEAR     65  65 100 CALM      30.10S
WARRENTON      CLEAR     67  64  89 SE3       30.05S
CULPEPER*      CLEAR    N/A N/A N/A CALM      30.06S
MANASSAS*      NOT AVBL
LEESBURG*      CLEAR     72  59  64 CALM      30.06S
WINCHESTER     PTCLDY    68  55  64 S5        30.06R
$$

VAZ048-049-060>072-079>083-310200-
CENTRAL AND SOUTH CENTRAL VIRGINIA...AND NORTH CENTRAL NORTH CAROLINA

CITY           SKY/WX    TMP DP  RH WIND       PRES   REMARKS
RICHMOND       PTCLDY    69  59  70 S6        30.07R
CHESTERFIELD*  CLEAR     70  54  56 CALM      30.09R
HANOVER        CLEAR     68  57  68 CALM      30.08R
TAPPAHANNOCK*  CLEAR     66  60  79 CALM      30.07R
CHARLOTTSVILLE CLEAR     70  57  63 S6        30.07R
ORANGE*        CLEAR     64  61  88 CALM      30.08S
LOUISA*        CLEAR     63  61  94 CALM      30.07R
FARMVILLE*     CLEAR     68  57  68 CALM      30.06R
SOUTH HILL*    CLEAR     70  66  88 CALM      30.13R
ROANOKE RAPIDS NOT AVBL
RALEIGH        MOCLDY    71  65  81 CALM      30.07R
$$

VAZ088>098-310200-
SOUTHEAST VIRGINIA

CITY           SKY/WX    TMP DP  RH WIND       PRES   REMARKS
NORFOLK        CLEAR     73  58  59 SE5       30.07R
VIRGINIA BEACH PTCLDY    72  60  66 SE8       30.06S
NORFOLK NAVAL  PTCLDY    74  58  57 SE5       30.08R
WEST POINT*    CLEAR     70  62  74 CALM      30.08R
NEWPORT NEWS   CLEAR     71  61  70 E5        30.07R
LANGLEY AFB    CLEAR     73  60  65 SE5       30.06R
FORT EUSTIS    CLEAR     71  62  72 SE1       30.05R
WILLIAMSBURG*  CLEAR     72  66  83 CALM      30.07S
FRANKLIN*      PTCLDY    70  64  83 CALM      30.07R
WAKEFIELD      PTCLDY    69  65  86 CALM      30.07R
$$

VAZ020-022-025-037-045-310200-
WESTERN AND SOUTHWEST VIRGINIA

CITY           SKY/WX    TMP DP  RH WIND       PRES   REMARKS
STAUNTON*      CLEAR     67  56  67 S3        30.10R
HOT SPRINGS VA MOCLDY    57  47  68 W6        30.20R
LYNCHBURG      CLEAR     65  59  81 CALM      30.10R
DANVILLE       CLEAR     71  61  70 E3        30.08R
MARTINSVILLE   CLEAR     66  60  80 CALM      30.10S
ROANOKE        PTCLDY    71  55  56 CALM      30.10S
BLACKSBURG     CLOUDY    70  57  64 E5          N/A
DUBLIN*        MOCLDY    69  57  64 CALM      30.14R
MARION*        CLEAR     65  56  72 CALM      30.17R
HILLSVILLE*    CLEAR     66  53  61 CALM      30.15S
RICHLANDS*     PTCLDY    69  55  61 CALM      30.16R
WISE*          CLEAR     64  54  68 CALM      30.16S
ABINGDON*      CLEAR     66  59  77 CALM      30.12S
$$

MDZ021>025-VAZ099-100-310200-
SOUTHERN MARYLAND AND THE DELMARVA PENINSULA

CITY           SKY/WX    TMP DP  RH WIND       PRES   REMARKS
PATUXENT RIVER PTCLDY    65  57  75 CALM      30.06R
BAY BRIDGE APT   N/A     72  54  53 S3        30.06R
LEONARDTOWN    CLEAR     66  54  63 CALM      30.08R
DOVER          CLEAR     71  51  49 S5        30.04S
GEORGETOWN     CLEAR     70  58  65 MISG      30.07R
EASTON         CLEAR     72  57  60 CALM      30.09S
CAMBRIDGE      CLEAR     66  55  68 CALM      30.06R
SALISBURY      CLEAR     69  56  62 CALM      30.07R
OCEAN CITY     CLEAR     62  60  93 CALM      30.06R
WALLOPS ISLAND CLEAR     69  58  67 CALM      30.08R
ACCOMACK*        N/A     64  59  82 E3        30.07R
$$

NCZ012>017-030>032-310200-
EASTERN NORTH CAROLINA

CITY           SKY/WX    TMP DP  RH WIND       PRES   REMARKS
ELIZABETH CITY CLEAR     71  62  73 SE6       30.07S
AHOSKIE*       CLEAR     69  65  89 CALM      30.08R
EDENTON*       CLEAR     73  63  70 SE6       30.07R
CURRITUCK*     CLEAR     69  56  63 CALM      30.08S
KILL DEVIL HLS CLEAR     73  60  65 E7        30.07R
MANTEO         NOT AVBL
CAPE HATTERAS  PTCLDY    73  62  68 E5        30.06S
GOLDSBORO      CLOUDY    71  70  98 E6        30.04R
WASHINGTON     PTCLDY    74  65  72 E6        30.06S
GREENVILLE     CLEAR     77  66  69 CALM      30.08R
NEW BERN       PTCLDY    76  65  68 E3        30.07R
WILMINGTON     MOCLDY    78  65  63 E3        30.04R
$$

VAZ048-310200-
ELSEWHERE

CITY           SKY/WX    TMP DP  RH WIND       PRES   REMARKS
HARRISBURG PA  PTCLDY    72  56  57 SW7       30.04R
BALTIMORE      PTCLDY    71  56  58 S5        30.05R
ANNAPOLIS      CLEAR     72  55  55 S3        30.05R
ANDREWS AFB    CLEAR     71  55  58 S8        30.06S
WILMINGTON DE  CLEAR     73  54  51 SW5       30.06R
PHILADELPHIA   PTCLDY    74  54  49 S8        30.05R
WILDWOOD NJ*   CLEAR     66  55  68 S6        30.08R
ATLANTIC CITY  CLEAR     71  56  58 SW5       30.05R
HENDERSON NC   PTCLDY    68  66  94 CALM      30.08R FOG
GREENSBORO     PTCLDY    72  62  71 E6        30.07R
ROCKY MOUNT    CLEAR     70  65  84 CALM      30.06R
FAYETTEVILLE   MOCLDY    75  63  66 NE7       30.04R
CHARLOTTE      CLOUDY    78  59  51 N5        30.05S
$$

VAZ100-310200-
MARINE

STATION/POSITION TIME  TEMP    WIND        PRES    WAVE   SWELL
                       AIR SEA DIR/SP/G            HT/PER HT/PER
                 (UTC) (F)     (DEG/KT/KT) (MB)    (FT/S) (FT/S)
44066 TX TWR #4  0100   73 75  230/  4/  6 1017.8R   3/ 7   3/ 7
CAPE MAY NJ      0100   70 78  170/  4/  6 1017.5R
LEWES DE         0100   70 74  180/  4/  5 1017.6S
15NM E FENWICK I 0100   73 75              1018.3R   2/ 7
OCEAN-CITY-INLET 0100   72 73  180/  6/  7 1017.4R
WACHAPREAGUE VA  0100   73 81  180/  2/  5 1018.1R
THOMAS POINT MD  0100   75 78  210/ 12/ 13 1018.3R
GOOSES REEF MD   0100   76     240/  6/  8 1018.2R
COVE POINT MD    0100   73     220/  4/  4 1017.8R
SOLOMONS ISLAND  0100      80                N/A
BISHOPS HEAD MD  0100   75 79  190/  3/  5 1017.6R
PINEY POINT MD   0100          190/  7/  8   N/A
POTOMAC MD       0100   75     190/  8/  8 1017.2R
CAMBRIDGE MD     0100   73 79  200/  2/  3 1017.5R
LEWISETTA VA     0100   72 78  160/  5/  5 1017.8R
RAPPAHANNOCK LGT 0100          140/  3/  4 1018.6R
STINGRAY PT      0100   76     190/  6/  8 1018.5S
YORK RVR RNG VA  0100   76     150/  4/  5 1017.5R
YORKTOWN VA      0100   76 80  160/  4/  5 1017.7R
JAMESTOWN VA     0100   72      80/  2/  2   N/A
DOMINION TERM VA 0100   78     230/  2/  3 1018.0R
KIPTOPEKE VA     0100      82  150/  5/  6   N/A
CHES BAY BRIDGE  0100   74 78  130/  6/  8 1017.5S
CAPE HENRY VA    0100   73     140/  6/  7 1016.9S
WILLOUBY STN VA  0100          130/  9/ 10 1017.3R
S CRANEY ISL VA  0100          110/  8/  9 1018.1R
CAPE HENRY BUOY  0100      78                N/A     2/ 7
1ST LANDING BUOY 0100   75     160/  8/ 10 1017.7R
CAPE CHARLES BUO 0100      77                N/A     2/ 8
OFFSHORE WE BUOY 0100      78                N/A     2/ 8
64NM E OF VA BCH 0100   74 78   70/  6/  8 1018.2R   3/ 7   3/ 7
DUCK PIER NC     0100   74 77  100/ 10/ 11 1017.6R
44056 DUCK FRF   0100                        N/A     2/ 8
OREGON INLET NC  0100   74 78   80/  7/ 11 1018.2R
HATTERAS NC      0100   75 80   70/  6/ 10 1018.4R
DIAMOND SHLS NC  0100          VRB 12/ 16  1017.6R   4/ 7   3/ 7
CAPE LOOKOUT NC  0000   78      70/ 17/ 18 1017.0F
$$


USA.gov is the U.S. government's official web portal to all federal, state and local government web resources and services.